Location: Audinghen
(50.8518°N, 1.6129°E)
Time: 03:36:10
(UTC+00:00)

CZ-4 R/B - Pass Details

Date: 07 August 2020
Orbit: 682 x 752 km, 98.5° (Epoch: 19 September)

Event Time Altitude Azimuth Distance (km) Brightness Sun altitude
Rises 00:57:07 0° 12° (NNE) 3,177 8.7 -21.6°
Reaches altitude 10° 00:59:26 10° 8° (N) 2,259 7.6 -21.5°
Maximum altitude 01:04:18 58° 291° (WNW) 870 4.2 -21.3°
Enters shadow 01:05:45 42° 236° (SW) 1,070 4.4 -21.3°
